User: anonymous
Location: Norwich
(52.6280°N, 1.3030°E)
Time: 20:14:08
(UTC+01:00)
Language:

APEX - Orbit

View from above orbital plane
View from above orbital plane
View from above satellite
View from above satellite

Ground track
Ground track

The orbit data is extracted from the following two-line orbital elements,

1 23191U 94046A   14210.08724618  .00008126  00000-0  32669-3 0  9562
2 23191 069.9225 092.5758 0746587 242.8022 228.1159 14.03965132966412
Epoch (UTC): 29 July 2014 02:05:38
Eccentricity: 0.0746587
inclination: 69.9225°
perigee height: 338 km
apogee height: 1422 km
right ascension of ascending node: 92.5758°
argument of perigee: 242.8022°
revolutions per day: 14.03965132
mean anomaly at epoch: 228.1159°
orbit number at epoch: 96641

The dashed part of the orbit path shows where the satellite is in the earth's shadow,  

DLR